STARS (KUKAI)

Satellite information

Favourite Embed

Satellite Type and Status

PAYLOADIN ORBIT

Key statistics

Satellite STARS (KUKAI) at a glance.

Uptime

5950

Days in orbit

Revolutions

≈ 14.9

Per day

Orbit

SSO

Sun Synchronous Orbit

Inclination

98.1

Latest

Satellite identification and parameters

Extended collection of information and parameters for STARS (KUKAI).

Object identification

Identified? True

Debris? False

Object name: STARS (KUKAI)

International designator: 2009-002G

Object number (NORAD): 33498

Object ID (CCSDS): 33498

Country: JAPAN (JPN)

Current information (Y/N): Y

RCS size: MEDIUM

Orbital parameters

Period: 96.542 minutes

Inclination: 98.1238 deg

SMA: 6971.127 km

Apoapsis: 600.409 km

Periapsis: 585.574 km

RAAN: 56.9151 deg

Eccentricy: 0.001064

Argument of periapsis: 66.6388 deg

Mean anomaly: 293.5948 deg

Mean motion: 14.91585995 rev/day

Mean motion (dot): 0.00004809 rev/day2

B* drag term: 0.00048478 1/REarth

Two-line elements (TLE)

Creation date: May 9, 2025, 2:46 a.m.

Reference frame: TEME

Reference center: EARTH

Epoch: May 8, 2025, 5:23 p.m. UTC

TLE line 0: 0 STARS (KUKAI)

TLE line 1: 1 33498U 09002G 25128.72490967 .00004809 00000-0 48478-3 0 9995

TLE line 2: 2 33498 98.1238 56.9151 0010640 66.6388 293.5948 14.91585995878105

Live tracking on map

Real-time ground track for satellite STARS (KUKAI).

In-orbit conjunctions

There are no conjunctions computed for STARS (KUKAI), at the moment. Check back to stay up to date, as we update our databases every day.

Go to all conjunctions

Associated space launch

Japanese Earth observation satellite. Launched with 7 secondary payloads.

STARS (KUKAI) was lifted into orbit during the mission ‘H-IIA 202 | GOSAT’, on board a H-IIA space rocket.

The launch took place on Jan. 23, 2009, 3:54 a.m. from Yoshinobu Launch Complex LP-1.

For more information about the launch, click the button.

Launch to space H-IIA 202 | GOSAT
H-IIA 202 | GOSAT

Agency: N/A

Status: Launch Successful

Launch date: Jan. 23, 2009, 3:54 a.m. UTC

Rocket: H-IIA

Launch pad: Yoshinobu Launch Complex LP-1

Location: Tanegashima Space Center, Japan

...

Latest news about this satellite

There are no fresh news available about this satellite. Check back as we update our databases every day.


Newsletter sign-up

Weekly statistics, charts and insights to help you stay on top of the space industry.